Powrót do katalogu

COSMOS 2499 DEB

AktywnyPO
NORAD 56570·DEBRIS·🇷🇺 Russia

Wystrzelony May 23, 2014 z Plesetsk Cosmodrome

Loading…

Następne Przeloty (najbliższe 24 godziny)

TLE

ŚwieżeSource: Space-Track

Epoka: Sep 12, 2026, 02:08 UTC

1 56570U 14028BD  26255.08897611  .00003057  00000-0  11875-1 0  9996
2 56570  82.4342 195.5831 0098281 111.9324 249.2263 12.87169195171218

Śledź COSMOS 2499 DEB w czasie rzeczywistym z AllMySat

Download on the App Store